Погода в Гардая

Алжир     32°29′28″N   3°40′48″E
темп.,
°C
ветер,
м/с
пор.,
м/с
влажн.,
%
обл.,
%
осадки,
мм/ч
давл.,
гПа
погр.,
м
25 мая, ср
ср2501:00+29в592346 0.0 1009201
04:00+28ю582268 0.0 1008113
07:00+28ю412215 0.0 1008361
10:00+35ююз91211100 0.0 10081766
13:00+38зюз12169100 0.0 10074521
16:00+38зюз1216920 0.0 10064260
19:00+35зсз811120 0.0 1006484
22:00+29ссв81319100 0.0 1011313
26 мая, чт
чт2601:00+24с1014325 0.0 1013457
04:00+20с101551100 0.0 1013411
07:00+20с913485 0.0 1014439
10:00+25ссз88226 0.0 1015768
13:00+30ссз77135 0.0 10141399
16:00+31ссз66123 0.0 10131792
19:00+29ссз78130 0.0 1014802
22:00+24с612240 0.0 1017255
27 мая, пт
пт2701:00+20с812420 0.0 1017385
04:00+18с612500 0.0 1017315
07:00+19с712440 0.0 1018444
10:00+24ссз89270 0.0 1018962
13:00+30ссз78170 0.0 10161836
16:00+32ссз79140 0.0 10142503
19:00+30с68150 0.0 1014375
22:00+25ссв59250 0.0 1016140
28 мая, сб
сб2801:00+22с464173 0.0 101793
04:00+20ссз47530 0.0 1016131
07:00+20ссз611490 0.0 1017429
10:00+26с79285 0.0 10161148
13:00+31с69165 0.0 10142044
16:00+34ссз691121 0.0 10122800
19:00+32ссв3413100 0.0 101168
22:00+26вюв332011 0.0 101422
29 мая, вс
вс2901:00+24юв2226100 0.0 101411
04:00+24ю2226100 0.0 101311
07:00+25ю112616 0.0 101339
10:00+31ююз441852 0.0 10131081
13:00+34зсз261582 0.0 10113229
16:00+36зсз671356 0.0 10093750
19:00+34с6815100 0.0 1009335
22:00+31з691994 0.0 1012159